Satellite: NOAA-14 Catalog number: 23455 Epoch time: 10056.39364587 Element set: 960 Inclination: 098.8849 deg RA of node: 137.8917 deg Eccentricity: 0.0009153 Arg of perigee: 188.3487 deg Mean anomaly: 171.7548 deg Mean motion: 14.13779631 rev/day Decay rate: 1.1e-07 rev/day^2 Epoch rev: 78170 Checksum: 346
Satellite: NOAA-15 Catalog number: 25338 Epoch time: 10056.49756599 Element set: 280 Inclination: 098.6105 deg RA of node: 045.4746 deg Eccentricity: 0.0011443 Arg of perigee: 043.5341 deg Mean anomaly: 316.6748 deg Mean motion: 14.24809503 rev/day Decay rate: 1.73e-06 rev/day^2 Epoch rev: 61284 Checksum: 308
Satellite: RESURS Catalog number: 25394 Epoch time: 10055.65864147 Element set: 439 Inclination: 098.3150 deg RA of node: 079.8199 deg Eccentricity: 0.0001354 Arg of perigee: 152.3845 deg Mean anomaly: 207.7413 deg Mean motion: 14.24192966 rev/day Decay rate: -3.7e-07 rev/day^2 Epoch rev: 60433 Checksum: 306
Satellite: FENGYUN1 Catalog number: 25730 Epoch time: 10056.39878191 Element set: 981 Inclination: 098.7772 deg RA of node: 024.3030 deg Eccentricity: 0.0023082 Arg of perigee: 221.1484 deg Mean anomaly: 138.7989 deg Mean motion: 14.08170688 rev/day Decay rate: 8.3e-07 rev/day^2 Epoch rev: 55595 Checksum: 321
Satellite: OKEAN-0 Catalog number: 25860 Epoch time: 10055.90463829 Element set: 922 Inclination: 097.8199 deg RA of node: 032.5006 deg Eccentricity: 0.0001861 Arg of perigee: 079.3596 deg Mean anomaly: 280.7828 deg Mean motion: 14.73616807 rev/day Decay rate: 1.06e-06 rev/day^2 Epoch rev: 57036 Checksum: 316
Satellite: NOAA-16 Catalog number: 26536 Epoch time: 10056.52302422 Element set: 757 Inclination: 099.1771 deg RA of node: 071.3292 deg Eccentricity: 0.0009812 Arg of perigee: 292.1258 deg Mean anomaly: 067.8891 deg Mean motion: 14.12548084 rev/day Decay rate: 2.12e-06 rev/day^2 Epoch rev: 48606 Checksum: 302
Satellite: NOAA-17 Catalog number: 27453 Epoch time: 10056.49778880 Element set: 763 Inclination: 098.4479 deg RA of node: 111.3638 deg Eccentricity: 0.0012747 Arg of perigee: 103.3579 deg Mean anomaly: 256.9030 deg Mean motion: 14.24133627 rev/day Decay rate: -5.0e-08 rev/day^2 Epoch rev: 39880 Checksum: 325
Satellite: NOAA-18 Catalog number: 28654 Epoch time: 10056.50111105 Element set: 249 Inclination: 098.9382 deg RA of node: 003.1535 deg Eccentricity: 0.0014698 Arg of perigee: 012.0714 deg Mean anomaly: 348.0799 deg Mean motion: 14.11329528 rev/day Decay rate: -1.49e-06 rev/day^2 Epoch rev: 24568 Checksum: 300
Satellite: NOAA-19 Catalog number: 33591 Epoch time: 10056.53572529 Element set: 450 Inclination: 098.7769 deg RA of node: 001.0909 deg Eccentricity: 0.0013357 Arg of perigee: 244.2778 deg Mean anomaly: 115.6993 deg Mean motion: 14.11030010 rev/day Decay rate: 3.73e-06 rev/day^2 Epoch rev: 5416 Checksum: 292
/EX SB KEPS @ AMSAT $ORB10056.M Orbital Elements 10056.MISC
HR AMSAT ORBITAL ELEMENTS FOR MANNED AND MISCELLANEOUS SATELLITES FROM WA5QGD FORT WORTH,TX February 25, 2010 Send Subscribe/unsubscribe to KEPS at http://www.amsat.org/mailman/listinfo/keps BID: ORB10056.M TO ALL RADIO AMATEURS BT
Satellite: HUBBLE Catalog number: 20580 Epoch time: 10055.73988967 Element set: 527 Inclination: 028.4693 deg RA of node: 253.9101 deg Eccentricity: 0.0003699 Arg of perigee: 086.8123 deg Mean anomaly: 273.2854 deg Mean motion: 15.00906071 rev/day Decay rate: 6.18e-06 rev/day^2 Epoch rev: 88784 Checksum: 324
Satellite: ISS Catalog number: 25544 Epoch time: 10057.07319131 Element set: 652 Inclination: 051.6465 deg RA of node: 081.0210 deg Eccentricity: 0.0007015 Arg of perigee: 346.8094 deg Mean anomaly: 056.6118 deg Mean motion: 15.73423637 rev/day Decay rate: 1.3464e-04 rev/day^2 Epoch rev: 64597 Checksum: 281
Satellite: CO-58 Catalog number: 28895 Epoch time: 10055.85040875 Element set: 520 Inclination: 098.0324 deg RA of node: 303.9496 deg Eccentricity: 0.0016833 Arg of perigee: 277.8875 deg Mean anomaly: 082.0448 deg Mean motion: 14.59850529 rev/day Decay rate: 8.5e-07 rev/day^2 Epoch rev: 23059 Checksum: 342
Satellite: FALCON Catalog number: 30776 Epoch time: 10056.92657078 Element set: 773 Inclination: 035.4339 deg RA of node: 359.6990 deg Eccentricity: 0.0001964 Arg of perigee: 307.8277 deg Mean anomaly: 052.2265 deg Mean motion: 15.03494358 rev/day Decay rate: 1.014e-05 rev/day^2 Epoch rev: 16330 Checksum: 309
Satellite: MAST Catalog number: 31126 Epoch time: 10056.70639820 Element set: 806 Inclination: 097.9531 deg RA of node: 104.4054 deg Eccentricity: 0.0093843 Arg of perigee: 212.3131 deg Mean anomaly: 147.2292 deg Mean motion: 14.53557068 rev/day Decay rate: 7.3e-07 rev/day^2 Epoch rev: 15186 Checksum: 278
Satellite: CAPE1 Catalog number: 31130 Epoch time: 10056.64970098 Element set: 823 Inclination: 097.9546 deg RA of node: 101.9865 deg Eccentricity: 0.0102140 Arg of perigee: 219.5774 deg Mean anomaly: 139.7938 deg Mean motion: 14.52139914 rev/day Decay rate: 1.94e-06 rev/day^2 Epoch rev: 15147 Checksum: 310
Satellite: COMPASS Catalog number: 32787 Epoch time: 10055.80677561 Element set: 604 Inclination: 097.9058 deg RA of node: 122.0514 deg Eccentricity: 0.0014972 Arg of perigee: 293.7863 deg Mean anomaly: 066.1794 deg Mean motion: 14.81769642 rev/day Decay rate: 3.41e-06 rev/day^2 Epoch rev: 9885 Checksum: 330
Satellite: AAUSAT2 Catalog number: 32788 Epoch time: 10056.83325805 Element set: 599 Inclination: 097.9100 deg RA of node: 123.1742 deg Eccentricity: 0.0014485 Arg of perigee: 291.3132 deg Mean anomaly: 068.6454 deg Mean motion: 14.81908847 rev/day Decay rate: 7.68e-06 rev/day^2 Epoch rev: 9901 Checksum: 320
Satellite: DO-64 Catalog number: 32789 Epoch time: 10056.71552613 Element set: 615 Inclination: 097.9140 deg RA of node: 123.4110 deg Eccentricity: 0.0014577 Arg of perigee: 288.4783 deg Mean anomaly: 071.4818 deg Mean motion: 14.81981861 rev/day Decay rate: 5.15e-06 rev/day^2 Epoch rev: 9899 Checksum: 331
Satellite: CO-66 Catalog number: 32791 Epoch time: 10056.15070000 Element set: 595 Inclination: 097.9072 deg RA of node: 122.4172 deg Eccentricity: 0.0015087 Arg of perigee: 290.7746 deg Mean anomaly: 069.1880 deg Mean motion: 14.81576125 rev/day Decay rate: 6.79e-06 rev/day^2 Epoch rev: 9886 Checksum: 322
Satellite: RS-30 Catalog number: 32953 Epoch time: 10056.65141016 Element set: 534 Inclination: 082.5001 deg RA of node: 099.0463 deg Eccentricity: 0.0018593 Arg of perigee: 350.4938 deg Mean anomaly: 009.5788 deg Mean motion: 12.43003733 rev/day Decay rate: 1.0e-07 rev/day^2 Epoch rev: 7988 Checksum: 285
Satellite: TACSAT-3 Catalog number: 35001 Epoch time: 10056.66087079 Element set: 224 Inclination: 040.4542 deg RA of node: 163.4494 deg Eccentricity: 0.0023221 Arg of perigee: 252.0084 deg Mean anomaly: 107.8195 deg Mean motion: 15.40470883 rev/day Decay rate: 7.186e-05 rev/day^2 Epoch rev: 4342 Checksum: 271
Satellite: PHARMSAT Catalog number: 35002 Epoch time: 10055.68450238 Element set: 213 Inclination: 040.4697 deg RA of node: 167.7582 deg Eccentricity: 0.0026198 Arg of perigee: 248.8230 deg Mean anomaly: 110.9784 deg Mean motion: 15.41108333 rev/day Decay rate: 6.507e-05 rev/day^2 Epoch rev: 4328 Checksum: 284
Satellite: HAWKSAT1 Catalog number: 35003 Epoch time: 10056.42473523 Element set: 224 Inclination: 040.4603 deg RA of node: 160.7812 deg Eccentricity: 0.0025041 Arg of perigee: 260.4057 deg Mean anomaly: 099.3923 deg Mean motion: 15.42951636 rev/day Decay rate: 1.2719e-04 rev/day^2 Epoch rev: 4343 Checksum: 258
Satellite: CP6 Catalog number: 35004 Epoch time: 10056.59674608 Element set: 217 Inclination: 040.4627 deg RA of node: 159.4616 deg Eccentricity: 0.0024962 Arg of perigee: 261.1864 deg Mean anomaly: 098.6125 deg Mean motion: 15.43356987 rev/day Decay rate: 1.4676e-04 rev/day^2 Epoch rev: 4345 Checksum: 320
Satellite: AEROCUB3 Catalog number: 35005 Epoch time: 10056.41717158 Element set: 230 Inclination: 040.4712 deg RA of node: 161.0325 deg Eccentricity: 0.0021303 Arg of perigee: 265.1901 deg Mean anomaly: 094.6466 deg Mean motion: 15.44386275 rev/day Decay rate: 2.9768e-04 rev/day^2 Epoch rev: 4342 Checksum: 268
Satellite: DRAGNSAT Catalog number: 35690 Epoch time: 10056.43471946 Element set: 281 Inclination: 051.6309 deg RA of node: 063.5405 deg Eccentricity: 0.0003752 Arg of perigee: 095.5220 deg Mean anomaly: 264.6356 deg Mean motion: 16.06351337 rev/day Decay rate: 2.84500e-03 rev/day^2 Epoch rev: 3336 Checksum: 278
Satellite: POLLUX Catalog number: 35693 Epoch time: 10056.49563741 Element set: 278 Inclination: 051.6368 deg RA of node: 065.5335 deg Eccentricity: 0.0010590 Arg of perigee: 120.8029 deg Mean anomaly: 239.4073 deg Mean motion: 16.01023167 rev/day Decay rate: 1.14414e-03 rev/day^2 Epoch rev: 3331 Checksum: 273
Satellite: CASTOR Catalog number: 35694 Epoch time: 10056.85685113 Element set: 206 Inclination: 051.6395 deg RA of node: 069.6201 deg Eccentricity: 0.0004559 Arg of perigee: 095.4438 deg Mean anomaly: 264.7107 deg Mean motion: 15.88223211 rev/day Decay rate: 4.3127e-04 rev/day^2 Epoch rev: 3329 Checksum: 294
Satellite: METEOR-M Catalog number: 35865 Epoch time: 10056.80626229 Element set: 136 Inclination: 098.7744 deg RA of node: 111.3274 deg Eccentricity: 0.0002260 Arg of perigee: 346.2069 deg Mean anomaly: 013.8998 deg Mean motion: 14.21828836 rev/day Decay rate: 1.76e-06 rev/day^2 Epoch rev: 2289 Checksum: 308
Satellite: RS-38 Catalog number: 35869 Epoch time: 10056.22660443 Element set: 138 Inclination: 098.7741 deg RA of node: 110.7730 deg Eccentricity: 0.0004393 Arg of perigee: 339.9476 deg Mean anomaly: 020.1485 deg Mean motion: 14.21976080 rev/day Decay rate: 1.76e-06 rev/day^2 Epoch rev: 2281 Checksum: 303
/EX